Showing default

NUSAT-34 (AMELIA EARHART, 55045

Orbit data source: Space-Track

NUSAT-34 (AMELIA EARHART, 55045 is a payload satellite owned by URUGUS S.A. (AR) in SSO that was launched on Tue, 03 Jan 2023 UTC via an FALCON 9 launch vehicle from the Air Force Eastern Test Range (AFETR). Payload-class satellites include a variety of spacecraft equipped with specific instruments for various scientific and technological missions. These include communications satellites like Starlink; space stations such as the ISS; scientific satellites like the Hubble; Earth observation satellites from companies like Planet Labs, Umbra, and HawkEye 360; GPS; miniature CubeSats for education and research; and military/defense satellites.

Loading next visibility...
Identifier
55045, 2023-001AN
Orbit
SSO
Last TLE update
10 hours ago
Origin
Manufacturer
URUGUS S.A.
Mission
Operational Commercial Imaging
Bus & Motor
NEWSAT V, Unknown motor
Mass
41.5 kg wet, 38.5 kg dry
Launch date (UTC)
2023-01-03 (2 years ago)
Launch vehicle
FALCON 9
Launch site
Air Force Eastern Test Range (AFETR)
Object type
Payload
Rocket body
Debris
Shape & HBR
Box, 0.813 m
Radar Cross Section
0.542 m², Medium (>0.1 m² and < 1m²)

Expand to show TLE details & history

TLE from 10 hours ago
0 NUSAT-34 (AMELIA EARHART
1 55045U 23001AN  25167.12445109  .00009180  00000-0  34359-3 0  9997
2 55045  97.3711 230.3044 0006471 307.8807  52.1847 15.27508834136387
Epoch: 2025-06-16T02:59Z
TLE epoch observation values (Epoch: 2025-06-16T02:59:12.574Z)
Latitude
0.00005°
Longitude
-79.13769°
Altitude
483.643 km
Speed
7.625 km/s
True Right ascension
15h 21m 13s
True Declination
0° 00' 00"
Sunlit
Object was in full shadow at epoch
Visualization orbit readout
Latitude
-43.08951°
Longitude
94.37886°
Altitude
499.349 km
Speed
7.614 km/s
Apparent Right ascension
07h 21m 41s
Apparent Declination
-67° 25' 28"
Sunlit
Object is in daylight
Visualization observer readout
Local Sidereal Time
00:03:29
Azimuth
149.968° SSE
Elevation
-43.711°
Doppler factor
1
Orbital elements
Apogee altitude
484.655 km
Perigee altitude
475.778 km
Semi-major axis
6,858.354 km
Eccentricity
0.00065
Inclination
97.3711°
RAAN
230.3044°
Arg. of periapsis
307.8807°
True anomaly
Unknown
Mean anomaly
52.1847°
Eccentric anomaly
Unknown
Mean motion
3.82132 °/min
Orbital period
94.21 mins
BSTAR
0.00034359
Loading maneuver chart data...
Loading SW <> Apogee altitude chart data...
Loading historical data...
Loading historical data...
Loading historical data...
Loading historical data...
Loading historical data...
Loading historical data...
Loading historical data...

NUSAT-34 (AMELIA EARHART Visibility forecast

Observer location: undefined°, undefined°

Span
Click to sort rows by Start time (UTC) header in descending order
Start Az.
Max El. time (UTC)
Max El. Az.
Max El.
End time (UTC)
End Az.
4 mins2025-06-16 16:08:42.176Z55.808° ENE2025-06-16 16:10:42.176Z90.452° ESE15.092°2025-06-16 16:12:42.176Z127.016° SE
4 mins2025-06-16 17:42:42.176Z330.382° NNW2025-06-16 17:44:42.176Z275.382° WNW24.891°2025-06-16 17:46:42.176Z234.59° WSW
5 mins2025-06-17 04:16:42.176Z168.138° S2025-06-17 04:18:42.176Z173.449° S43.653°2025-06-17 04:21:42.176Z347.421° N
|